Content
SEND FEEDBACK

Daily
Averages
Monthly
Summary
Canada

VANCOUVER, BRITISH COLUMBIA


Home > North America > Canada > British Columbia
Elevation: 2 meters     Latitude: 49 11N     Longitude: 123 10W

WEATHER
 
SELECT A DAY
Number of Records: 253,227;   Date Range: 5/15/97 - 10/29/14
 
SHARE

PRINT THIS DATA

[ ← Previous Day ]
WEATHER ALMANAC - 16 APRIL, 2014
[ Next Day → ]
[ °F ]   °C
Weather ElementAverageHighLow
Temperature9.8 °C12 °C (3:15 pm)8 °C (12:35 am)
Dewpoint8.5 °C10 °C (10:35 pm)7 °C (1:55 am)
Humidity92 %100 % (12:35 am)77 % (3:55 pm)
Barometer1015.2 hPa1017.3 hPa (12:35 am)1011.5 hPa (11:35 pm)
Wind Speed10.9 km/h24.1 km/h (11:55 am)
Wind Gust31.5 km/h (12:15 pm)
Weather ElementAverage
Visibility10.1 km
Wind DirectionSSE (147 °)

Weather ElementTotal
Precipitation---
Heating Degree Days8.3 (Base 18.3)
Averaged from 71 records on 16 April, 2014
WEATHER CONDITIONS BREAKOUT
WIND DIRECTION BREAKOUT
WEATHER BY HOUR - 16 APRIL, 2014
[ °F ]   °C
Local TimeTemperatureDewpointHumidityBarometerVisibilityWind DirectionWind SpeedGust SpeedPrecipitationEventsConditions
12:35 AM8 °C8 °C100 %1017.3 hPa8 kmCalmRainLight Rain
12:55 AM8 °C8 °C100 %1016.9 hPa6.4 kmCalmRainLight Rain
1:15 AM8 °C8 °C100 %1016.9 hPa4.8 kmCalmRainLight Rain
1:35 AM8 °C8 °C100 %1016.9 hPa6.4 kmCalmRainLight Rain
1:55 AM8 °C7 °C93 %1016.9 hPa4.8 kmCalmRainRain
2:15 AM8 °C7 °C93 %1016.6 hPa6.4 kmCalmRainLight Rain
2:35 AM8 °C7 °C93 %1016.6 hPa9.7 kmCalmRainLight Rain
2:55 AM8 °C8 °C100 %1016.3 hPa9.7 kmSouth (190°)5.6 km/hRainLight Rain
3:15 AM9 °C8 °C93 %1016.3 hPa8 kmSouth (190°)13 km/hRainLight Rain
3:35 AM9 °C8 °C93 %1016.3 hPa9.7 kmSouth (190°)11.1 km/hRainLight Rain
3:55 AM9 °C8 °C93 %1016.3 hPa9.7 kmSouth (190°)9.3 km/hRainLight Rain
4:15 AM8 °C8 °C100 %1016.3 hPa8 kmSouth (190°)11.1 km/hRainLight Rain
4:35 AM9 °C8 °C93 %1016.3 hPa8 kmSouth (190°)11.1 km/hRainLight Rain
4:55 AM9 °C8 °C93 %1016.3 hPa8 kmSSW (200°)14.8 km/hRainLight Rain
5:15 AM9 °C8 °C93 %1016.3 hPa8 kmSSW (210°)18.5 km/hRainLight Rain
5:35 AM9 °C8 °C93 %1015.9 hPa8 kmSouth (190°)16.7 km/hRainLight Rain
5:55 AM9 °C8 °C93 %1015.9 hPa8 kmSSW (200°)16.7 km/hRainLight Rain
6:15 AM9 °C8 °C93 %1015.9 hPa8 kmSSW (200°)14.8 km/hRainLight Rain
6:35 AM9 °C8 °C93 %1015.9 hPa8 kmSouth (180°)14.8 km/hRainLight Rain
6:55 AM9 °C8 °C93 %1015.9 hPa8 kmSouth (190°)16.7 km/hRainLight Rain
7:15 AM9 °C8 °C93 %1015.9 hPa6.4 kmSSW (200°)14.8 km/hRainLight Rain
7:35 AM9 °C8 °C93 %1015.9 hPa6.4 kmSouth (190°)13 km/hRainLight Rain
7:55 AM9 °C8 °C93 %1015.9 hPa8 kmSouth (190°)16.7 km/hRainLight Rain
8:15 AM9 °C8 °C93 %1015.9 hPa8 kmSSW (200°)16.7 km/hRainLight Rain
8:35 AM9 °C8 °C93 %1015.9 hPa8 kmSouth (190°)16.7 km/hRainLight Rain
8:55 AM9 °C9 °C100 %1015.9 hPa8 kmSouth (190°)9.3 km/hRainLight Rain
9:15 AM9 °C9 °C100 %1015.9 hPa9.7 kmSouth (180°)9.3 km/hRainLight Rain
9:35 AM9 °C9 °C100 %1015.9 hPa11.3 kmSSE (160°)5.6 km/hRainLight Rain
9:55 AM9 °C9 °C100 %1016.3 hPa6.4 kmSouth (190°)9.3 km/hRainLight Rain
10:15 AM9 °C9 °C100 %1016.3 hPa6.4 kmNorthRainLight Rain
10:35 AM10 °C9 °C94 %1016.3 hPa6.4 kmCalmRainLight Rain
10:55 AM10 °C9 °C94 %1016.3 hPa8 kmSouth (170°)7.4 km/hRainLight Rain
11:15 AM10 °C9 °C94 %1015.9 hPa11.3 kmSouth (170°)5.6 km/hOvercast
11:35 AM10 °C9 °C94 %1015.9 hPa14.5 kmSouth (170°)11.1 km/hMostly Cloudy
11:55 AM10 °C8 °C87 %1015.6 hPa16.1 kmSouth (190°)24.1 km/hOvercast
12:15 PM10 °C8 °C87 %1015.9 hPa16.1 kmSouth (180°)14.8 km/h31.5 km/hOvercast
12:35 PM10 °C9 °C94 %1015.6 hPa14.5 kmSouth (170°)13 km/hOvercast
12:55 PM10 °C9 °C94 %1015.6 hPa16.1 kmSouth (180°)11.1 km/hOvercast
1:15 PM10 °C8 °C87 %1015.6 hPa16.1 kmSouth (170°)14.8 km/hOvercast
1:35 PM10 °C8 °C87 %1015.6 hPa16.1 kmSouth (180°)14.8 km/h29.6 km/hOvercast
1:55 PM10 °C8 °C87 %1015.6 hPa16.1 kmSouth (180°)11.1 km/hOvercast
2:15 PM11 °C8 °C82 %1015.6 hPa16.1 kmSouth (190°)18.5 km/h27.8 km/hOvercast
2:35 PM11 °C8 °C82 %1015.6 hPa14.5 kmSouth (190°)13 km/hOvercast
2:55 PM11 °C8 °C82 %1015.6 hPa14.5 kmSouth (190°)16.7 km/hOvercast
3:15 PM12 °C9 °C82 %1015.2 hPa16.1 kmSSW (200°)14.8 km/hOvercast
3:35 PM11 °C8 °C82 %1015.2 hPa14.5 kmSSE (160°)11.1 km/hOvercast
3:55 PM12 °C8 °C77 %1014.9 hPa16.1 kmSouth (190°)18.5 km/hOvercast
4:15 PM12 °C9 °C82 %1014.9 hPa16.1 kmSouth (180°)16.7 km/h25.9 km/hOvercast
4:35 PM12 °C8 °C77 %1014.9 hPa16.1 kmSouth (180°)13 km/hOvercast
4:55 PM12 °C9 °C82 %1014.9 hPa16.1 kmSouth (190°)13 km/hOvercast
5:15 PM12 °C9 °C82 %1014.6 hPa14.5 kmSSW (200°)16.7 km/hOvercast
5:35 PM12 °C9 °C82 %1014.6 hPa16.1 kmSouth (190°)16.7 km/hMostly Cloudy
5:55 PM12 °C9 °C82 %1014.6 hPa16.1 kmSouth (190°)13 km/hMostly Cloudy
6:15 PM11 °C9 °C88 %1014.6 hPa14.5 kmSouth (190°)14.8 km/hOvercast
6:35 PM11 °C9 °C88 %1014.2 hPa14.5 kmSouth (190°)14.8 km/hMostly Cloudy
6:55 PM11 °C9 °C88 %1014.2 hPa8 kmSouth (180°)11.1 km/hRainLight Rain
7:15 PM10 °C9 °C94 %1014.2 hPa8 kmSouth (190°)13 km/hRainLight Rain
7:35 PM10 °C9 °C94 %1013.9 hPa6.4 kmSouth (180°)11.1 km/hRainLight Rain
7:55 PM10 °C9 °C94 %1013.9 hPa3.2 kmSouth (180°)13 km/hRainRain
8:15 PM10 °C9 °C94 %1013.5 hPa8 kmSouth (180°)13 km/hRainLight Rain
8:35 PM10 °C9 °C94 %1013.5 hPa6.4 kmSouth (190°)13 km/hRainLight Rain
8:55 PM10 °C9 °C94 %1013.5 hPa8 kmSSW (200°)13 km/hRainLight Rain
9:15 PM10 °C9 °C94 %1013.2 hPa12.9 kmSSW (200°)9.3 km/hRainLight Rain
9:35 PM10 °C9 °C94 %1013.2 hPa11.3 kmNorthRainLight Rain
9:55 PM10 °C9 °C94 %1013.2 hPa8 kmNorthRainLight Rain
10:15 PM10 °C9 °C94 %1012.9 hPa8 kmCalmRainLight Rain
10:35 PM10 °C10 °C100 %1012.5 hPa4 kmCalmRainRain
10:55 PM10 °C9 °C94 %1012.2 hPa6.4 kmCalmRainLight Rain
11:15 PM9 °C9 °C100 %1011.9 hPa6.4 kmCalmRainLight Rain
11:35 PM10 °C10 °C100 %1011.5 hPa8 kmSouth (170°)7.4 km/hRainLight Rain
11:55 PM10 °C9 °C94 %1011.5 hPa8 kmSouth (180°)11.1 km/hRainLight Rain
Hourly data recorded from CZBB, located 0 kilometers away from Vancouver, British Columbia







STORIES FROM OUR PARTNERS